FW4540 Weather Reports


Display with metric or nautical units.
time (UTC)temp
F
wind
direction
speed
MPH
gust
MPH
rain 1hr
in
rain 24hr
in
rain mn
in
humidity
%
barometer
mb
20260902212011 62 0 0.0 0.0 0.00 0.00 0.00 77 21.7
20260902211012 62 0 0.0 0.0 0.00 0.00 0.00 78 21.7
20260902210011 63 0 0.0 0.0 0.00 0.00 0.00 76 21.7
20260902205011 63 0 0.0 0.0 0.00 0.00 0.00 76 21.6
20260902204011 64 0 0.0 0.0 0.00 0.00 0.00 73 21.7
20260902203011 64 0 0.0 0.0 0.00 0.00 0.00 73 21.6
20260902202011 65 0 0.0 0.0 0.00 0.00 0.00 70 21.4
20260902201011 66 0 0.0 0.0 0.00 0.00 0.00 70 21.4
20260902200011 67 0 0.0 0.0 0.00 0.00 0.00 68 21.3
20260902195011 67 0 0.0 0.0 0.00 0.00 0.00 68 21.3
20260902194011 68 0 0.0 0.0 0.00 0.00 0.00 66 21.2
20260902193014 69 0 0.0 0.0 0.00 0.00 0.00 65 21.2
20260902191011 71 0 0.0 0.0 0.00 0.00 0.00 62 21.0
20260902185011 74 270 0.0 1.0 0.00 0.00 0.00 57 20.7
20260902184011 75 270 0.0 1.0 0.00 0.00 0.00 56 20.6
20260902181011 77 270 0.0 1.0 0.00 0.00 0.00 53 20.4
20260902180011 77 292 2.0 4.0 0.00 0.00 0.00 52 20.3
20260902175011 78 292 0.0 2.0 0.00 0.00 0.00 51 20.2
20260902174011 78 0 0.0 0.0 0.00 0.00 0.00 50 20.1
20260902173010 79 270 1.0 4.0 0.00 0.00 0.00 49 20.0
20260902172011 80 225 1.0 3.0 0.00 0.00 0.00 49 20.0
20260902171011 80 225 3.0 6.0 0.00 0.00 0.00 48 19.9
20260902170011 81 270 2.0 4.0 0.00 0.00 0.00 47 20.0
20260902165014 81 225 3.0 9.0 0.00 0.00 0.00 47 19.9
20260902164010 81 247 2.0 5.0 0.00 0.00 0.00 48 20.0
20260902162010 81 270 3.0 8.0 0.00 0.00 0.00 46 20.0
20260902161010 81 270 2.0 6.0 0.00 0.00 0.00 46 20.1
20260902160011 82 270 5.0 10.0 0.00 0.00 0.00 45 20.1
20260902155010 83 270 2.0 6.0 0.00 0.00 0.00 45 20.1
20260902153013 84 247 3.0 7.0 0.00 0.00 0.00 44 20.1
20260902152010 84 270 3.0 8.0 0.00 0.00 0.00 43 20.2
20260902151013 83 270 3.0 8.0 0.00 0.00 0.00 44 20.2
20260902150011 84 292 0.0 3.0 0.00 0.00 0.00 44 20.2
20260902144010 85 292 2.0 8.0 0.00 0.00 0.00 42 20.1
20260902143010 85 315 1.0 7.0 0.00 0.00 0.00 42 20.1
20260902142013 85 270 1.0 4.0 0.00 0.00 0.00 41 20.1
20260902141010 84 270 2.0 7.0 0.00 0.00 0.00 42 20.2
20260902135010 84 360 1.0 3.0 0.00 0.00 0.00 42 20.3
20260902134010 84 247 4.0 9.0 0.00 0.00 0.00 42 20.2
20260902132010 85 247 1.0 6.0 0.00 0.00 0.00 42 20.3
20260902130011 85 270 2.0 8.0 0.00 0.00 0.00 41 20.5
20260902125010 84 270 3.0 9.0 0.00 0.00 0.00 42 20.6
20260902124010 83 270 2.0 7.0 0.00 0.00 0.00 43 20.5
20260902123010 83 180 2.0 7.0 0.00 0.00 0.00 42 20.7
20260902122010 82 45 2.0 5.0 0.00 0.00 0.00 44 20.9
20260902121010 83 225 4.0 9.0 0.00 0.00 0.00 43 21.0
20260902120011 83 225 1.0 4.0 0.00 0.00 0.00 43 20.9
20260902115010 81 45 2.0 5.0 0.00 0.00 0.00 46 21.1
20260902114010 81 247 0.0 3.0 0.00 0.00 0.00 46 21.1
20260902113010 80 225 4.0 10.0 0.00 0.00 0.00 47 21.1
20260902111010 81 225 1.0 4.0 0.00 0.00 0.00 48 21.4
20260902110011 81 337 1.0 7.0 0.00 0.00 0.00 47 21.4
20260902105010 80 22 1.0 3.0 0.00 0.00 0.00 48 21.5
20260902104010 80 225 1.0 5.0 0.00 0.00 0.00 51 21.6
20260902103010 79 202 0.0 3.0 0.00 0.00 0.00 53 21.6
20260902102010 77 315 0.0 2.0 0.00 0.00 0.00 55 21.6
20260902101010 76 360 0.0 2.0 0.00 0.00 0.00 57 21.7
20260902100011 77 337 1.0 4.0 0.00 0.00 0.00 56 21.7
20260902095010 76 225 0.0 2.0 0.00 0.00 0.00 59 21.7
20260902093010 73 22 0.0 3.0 0.00 0.00 0.00 64 21.7
20260902092010 71 247 0.0 2.0 0.00 0.00 0.00 66 21.8
20260902091010 70 247 0.0 3.0 0.00 0.00 0.00 69 21.8
20260902090011 69 0 0.0 0.0 0.00 0.00 0.00 71 21.7
20260902085010 69 247 0.0 1.0 0.00 0.00 0.00 73 21.6
20260902083010 66 247 0.0 1.0 0.00 0.00 0.00 77 21.6
20260902082010 66 0 0.0 0.0 0.00 0.00 0.00 79 21.6
20260902081010 65 247 0.0 1.0 0.00 0.00 0.00 80 21.6
20260902080011 64 247 0.0 1.0 0.00 0.00 0.00 82 21.5
20260902075010 63 247 0.0 1.0 0.00 0.00 0.00 86 21.4
20260902074010 62 247 0.0 2.0 0.00 0.00 0.00 86 21.3
20260902073010 62 315 0.0 2.0 0.00 0.00 0.00 88 21.4
20260902072010 60 315 0.0 3.0 0.00 0.00 0.00 91 21.2
20260902071010 59 0 0.0 0.0 0.00 0.00 0.00 92 21.1
20260902070011 59 315 0.0 1.0 0.00 0.00 0.00 93 21.1
20260902065010 58 315 0.0 2.0 0.00 0.00 0.00 94 21.1
20260902064010 58 0 0.0 0.0 0.00 0.00 0.00 94 21.0
20260902063010 57 0 0.0 0.0 0.00 0.00 0.00 95 20.9
20260902060011 55 0 0.0 0.0 0.00 0.00 0.00 96 20.6
20260902055010 54 0 0.0 0.0 0.00 0.00 0.00 96 20.4
20260902054010 54 0 0.0 0.0 0.00 0.00 0.00 96 20.4
20260902053010 54 0 0.0 0.0 0.00 0.00 0.00 96 20.3
20260902052010 54 0 0.0 0.0 0.00 0.00 0.00 96 20.1
20260902051010 54 0 0.0 0.0 0.00 0.00 0.00 96 20.1
20260902050010 53 0 0.0 0.0 0.00 0.00 0.00 96 20.0
20260902045010 53 0 0.0 0.0 0.00 0.00 0.00 96 20.1
20260902044010 53 0 0.0 0.0 0.00 0.00 0.00 96 20.1
20260902043010 53 0 0.0 0.0 0.00 0.00 0.00 96 20.3
20260902042010 53 0 0.0 0.0 0.00 0.00 0.00 96 20.4
20260902041010 53 0 0.0 0.0 0.00 0.00 0.00 96 20.4
20260902040010 52 0 0.0 0.0 0.00 0.00 0.00 95 20.2
20260902034010 52 0 0.0 0.0 0.00 0.00 0.00 95 20.3
20260902033010 53 0 0.0 0.0 0.00 0.00 0.00 95 20.4
20260902032010 53 0 0.0 0.0 0.00 0.00 0.00 95 20.2
20260902031010 53 0 0.0 0.0 0.00 0.00 0.00 95 20.1
20260902025012 54 0 0.0 0.0 0.00 0.00 0.00 95 20.0
20260902024010 54 0 0.0 0.0 0.00 0.00 0.00 94 19.9
20260902023010 54 0 0.0 0.0 0.00 0.00 0.00 95 19.9
20260902022010 53 0 0.0 0.0 0.00 0.00 0.00 95 19.9
20260902020010 53 0 0.0 0.0 0.00 0.00 0.00 94 20.1
20260902015010 54 0 0.0 0.0 0.00 0.00 0.00 94 20.3
20260902014010 54 0 0.0 0.0 0.00 0.00 0.00 94 20.4
20260902013010 54 0 0.0 0.0 0.00 0.00 0.00 94 20.1
20260902012010 53 0 0.0 0.0 0.00 0.00 0.00 93 20.0
20260902011010 54 0 0.0 0.0 0.00 0.00 0.00 93 20.1
20260902010010 55 0 0.0 0.0 0.00 0.00 0.00 92 20.1
20260902005010 55 0 0.0 0.0 0.00 0.00 0.00 92 20.1
20260902004010 55 0 0.0 0.0 0.00 0.00 0.00 92 20.1
20260902003010 55 0 0.0 0.0 0.00 0.00 0.00 91 20.1
20260902002010 55 0 0.0 0.0 0.00 0.00 0.00 92 20.1
20260902001010 54 0 0.0 0.0 0.00 0.00 0.00 91 20.0
20260902000010 55 0 0.0 0.0 0.00 0.00 0.00 90 20.0
20260901235010 56 0 0.0 0.0 0.00 0.00 0.00 90 20.1
20260901234010 56 0 0.0 0.0 0.00 0.00 0.00 89 20.0
20260901233010 56 0 0.0 0.0 0.00 0.00 0.00 89 20.0
20260901232010 56 0 0.0 0.0 0.00 0.00 0.00 88 20.1
20260901230010 57 0 0.0 0.0 0.00 0.00 0.00 86 20.1
20260901225010 58 315 0.0 2.0 0.00 0.00 0.00 87 20.0
20260901224010 57 0 0.0 0.0 0.00 0.00 0.00 88 19.9
20260901223010 58 0 0.0 0.0 0.00 0.00 0.00 87 19.9
20260901220010 59 0 0.0 0.0 0.00 0.00 0.00 85 19.9
20260901214011 58 0 0.0 0.0 0.00 0.00 0.00 83 19.7
20260901213010 60 0 0.0 0.0 0.00 0.00 0.00 82 19.8